Civil Air Patrol

Glenn L. Martin Composite Squadron

Welcome to the Glenn L. Martin Composite Squadron Civil Air Patrol

 

We are the official auxiliary of the United States Air Force.

Our 3 main missions are cadet programs, aerospace education and emergency services.

Click each link to learn more about each mission.

 

Here is a short video from National Headquarters about CAP

 

 


 

 
Current METAR for KMTN (Martin State Airport)

KMTN 232055Z 27015G24KT 10SM SKC 11/M07 A3013

 

Current TAF for KBWI (Baltimore Washington International)

TAF AMD KBWI 232051Z 2321/2424 30016G26KT P6SM SKC FM232200 30013KT P6SM SKC FM240000 30009KT P6SM SKC FM240500 29005KT P6SM SKC FM241600 23007KT P6SM SCT150